[[{"header":{"parameterUnit":"m.s-1","parameterCategory":2,"la1":30.2991,"la2":30.254,"lo1":-89.0895,"lo2":-89.0444,"dy":0.0017,"dx":0.0017,"nx":28,"ny":28,"refTime":"2025-12-28T03:00:00:Z","depth":"0","parameterNumber":2,"parameterNumberName":"U-component_of_CURRENTS"},"data":[0,0,0,0,0,0,0,0,0,0,0,0,0,0,0,0,0,0,0,0,0,0,0,0,0,0,0,0,0,0,0,0,0,0,0,0,0,0,0,0,0,0,0,0,0,0,0,0,0,0,0,0,0,0,0,0,0,0,-0.2723,-0.2723,0,-0.2681,-0.268,-0.2679,-0.2586,-0.2585,-0.2584,-0.2583,-0.2424,-0.2421,-0.2418,0,0,0,0,0,0,0,0,0,0,0,0,0,-0.2585,-0.2588,-0.2723,-0.2723,-0.2724,-0.2681,-0.268,-0.2678,-0.2586,-0.2585,-0.2584,-0.2583,-0.2425,-0.2422,-0.2418,0,0,0,0,0,0,0,0,0,0,0,0,0,-0.2596,-0.2589,-0.2723,-0.2679,-0.2676,-0.2682,-0.268,-0.2678,-0.2586,-0.2585,-0.2583,-0.2582,-0.2427,-0.2422,-0.2417,-0.2418,0,0,-0.2402,-0.24,0,0,0,0,0,0,0,0,-0.2596,-0.26,-0.2685,-0.2683,-0.2679,-0.2645,-0.2574,-0.2589,-0.2587,-0.261,-0.2583,-0.2581,-0.2495,-0.2484,-0.2468,-0.2411,-0.2404,-0.2402,-0.2399,-0.2397,-0.2395,0,0,0,0,0,0,0,-0.2595,-0.2601,-0.2697,-0.2686,-0.2682,-0.2616,-0.2615,-0.2575,-0.2552,-0.2608,-0.2604,-0.2615,-0.249,-0.2473,-0.2464,-0.2402,-0.2402,-0.2398,-0.2395,-0.2393,-0.2322,-0.2323,0,0,0,0,0,0,-0.2629,-0.2601,-0.2698,-0.2697,-0.2643,-0.2621,-0.262,-0.265,-0.2555,-0.2543,-0.2616,-0.2611,-0.2482,-0.2469,-0.2458,-0.2456,-0.2397,-0.2392,-0.2389,-0.2321,-0.2322,-0.2323,0,0,0,0,0,0,-0.2626,-0.2639,-0.27,-0.2653,-0.2658,-0.2627,-0.266,-0.265,-0.2639,-0.2564,-0.2547,-0.2617,-0.248,-0.2464,-0.243,-0.2449,-0.239,-0.2386,-0.232,-0.2321,-0.2323,-0.2451,0,0,0,0,0,0,-0.2623,-0.2639,-0.2661,-0.2657,-0.2662,-0.2733,-0.2662,-0.2651,-0.2653,-0.2645,-0.256,-0.2543,-0.2478,-0.2438,-0.2425,-0.2441,-0.2382,-0.2318,-0.232,-0.2322,-0.2446,-0.2457,-0.2467,0,0,0,0,0,-0.2618,-0.2671,-0.2663,-0.2675,-0.2699,-0.2736,-0.2732,-0.2695,-0.2655,-0.2673,-0.2601,-0.2546,-0.2441,-0.2436,-0.242,-0.2435,-0.2317,-0.232,-0.2322,-0.2441,-0.2455,-0.2466,0,0,0,0,0,0,-0.2609,-0.2667,-0.2658,-0.2721,-0.274,-0.2724,-0.2735,-0.2713,-0.2671,-0.2648,-0.2562,-0.2542,-0.2517,-0.2464,-0.246,-0.242,-0.2369,-0.2369,-0.2465,-0.2477,-0.2488,-0.2481,-0.2378,0,0,0,0,0,-0.2627,-0.2679,-0.2715,-0.2756,-0.2776,-0.2756,-0.276,-0.2744,-0.2715,-0.2695,-0.264,-0.257,-0.2516,-0.2488,-0.2438,-0.2423,-0.2356,-0.2421,-0.2432,-0.2441,-0.2425,-0.2385,-0.2391,-0.2331,-0.2331,-0.2331,0,0,-0.2622,-0.2667,-0.2688,-0.2757,-0.2757,-0.2798,-0.2752,-0.2778,-0.2781,-0.2684,-0.2662,-0.2609,-0.2521,-0.2498,-0.2482,-0.2455,-0.2419,-0.2444,-0.2453,-0.2431,-0.2388,-0.2394,-0.2399,-0.2333,-0.2332,-0.2332,0,0,-0.2657,-0.2695,-0.2754,-0.279,-0.2833,-0.2829,-0.2849,-0.2855,-0.2828,-0.2821,-0.2739,-0.2706,-0.2634,-0.2578,-0.2535,-0.2577,-0.2479,-0.2559,-0.2603,-0.2566,-0.2571,-0.2574,-0.248,-0.2474,-0.2563,-0.2563,-0.2563,0,-0.2642,-0.2728,-0.277,-0.284,-0.2861,-0.2854,-0.2899,-0.2887,-0.2872,-0.2844,-0.283,-0.272,-0.267,-0.261,-0.2623,-0.2602,-0.2538,-0.2566,-0.2581,-0.2582,-0.2583,-0.2487,-0.2478,-0.2569,-0.2569,-0.2568,-0.2567,0,-0.2718,-0.2787,-0.2826,-0.2908,-0.2943,-0.2981,-0.2994,-0.2998,-0.2968,-0.2938,-0.2891,-0.2828,-0.2757,-0.2749,-0.2694,-0.267,-0.2607,-0.2604,-0.2552,-0.2597,-0.2492,-0.2481,-0.2579,-0.2576,-0.2574,-0.2573,0,0,-0.2626,-0.2842,-0.2837,-0.2872,-0.2977,-0.2981,-0.303,-0.3033,-0.2996,-0.2998,-0.2945,-0.2902,-0.2861,-0.2809,-0.275,-0.2721,-0.2686,-0.2669,-0.2664,-0.2579,-0.2552,-0.2429,-0.2404,-0.2688,-0.2687,-0.2687,-0.247,0,-0.264,-0.2783,-0.2891,-0.2948,-0.2995,-0.3043,-0.3067,-0.3065,-0.3042,-0.2994,-0.2945,-0.2875,-0.2883,-0.283,-0.2821,-0.2705,-0.2664,-0.2741,-0.2515,-0.2507,-0.2397,-0.239,-0.2318,-0.2112,-0.2458,-0.2456,-0.2455,0,-0.2626,-0.2723,-0.2829,-0.2935,-0.2954,-0.2988,-0.2974,-0.2999,-0.2977,-0.2954,-0.293,-0.2883,-0.2833,-0.2833,-0.2709,-0.2754,-0.2664,-0.2589,-0.258,-0.2407,-0.2363,-0.2125,-0.2078,-0.2053,-0.2436,-0.2438,-0.2439,0,-0.2439,-0.2634,-0.2704,-0.2746,-0.2892,-0.2904,-0.2943,-0.2958,-0.2894,-0.2904,-0.2829,-0.2839,-0.2733,-0.2714,-0.2592,-0.2646,-0.2416,-0.2475,-0.2274,-0.2261,-0.2122,-0.2099,-0.2026,-0.2382,-0.2383,-0.2383,-0.2384,0,-0.2351,-0.2362,-0.2618,-0.2616,-0.2597,-0.2776,-0.2702,-0.2746,-0.2752,-0.2624,-0.2761,-0.2622,-0.2692,-0.2577,-0.2553,-0.2344,-0.239,-0.2251,-0.22,-0.2161,-0.2145,-0.2054,-0.208,-0.2375,-0.2377,-0.2378,-0.238,0,-0.2046,-0.2263,-0.2285,-0.2466,-0.2496,-0.2443,-0.2478,-0.2413,-0.2504,-0.2342,-0.2329,-0.2375,-0.2283,-0.2308,-0.2208,-0.2193,-0.2025,-0.1989,-0.1911,-0.1856,-0.1708,-0.1744,-0.1571,-0.1536,-0.177,-0.1766,-0.1762,0,-0.1901,-0.1916,-0.2057,-0.2032,-0.2085,-0.2077,-0.2044,-0.2196,-0.2138,-0.2128,-0.2007,-0.1957,-0.1832,-0.17,-0.1752,-0.1702,-0.1757,-0.1575,-0.1697,-0.1655,-0.166,-0.1715,-0.1706,-0.155,-0.1545,-0.1541,-0.1538,0,-0.1554,-0.162,-0.1629,-0.1618,-0.1598,-0.1557,-0.1566,-0.1497,-0.1646,-0.1589,-0.1487,-0.1418,-0.136,-0.1305,-0.1307,-0.1317,-0.1557,-0.1484,-0.1478,-0.1496,-0.1512,-0.1468,-0.1707,-0.1501,-0.1504,-0.1507,-0.1509,-0.151,-0.1241,-0.1161,-0.1233,-0.1185,-0.1155,-0.1097,-0.1034,-0.1055,-0.099,-0.0967,-0.1005,-0.09,-0.0894,-0.0926,-0.0975,-0.108,-0.1194,-0.1123,-0.1166,-0.1222,-0.1211,-0.1333,-0.106,-0.1061,-0.1062,-0.1063,-0.1064,0,-0.0954,-0.0921,-0.0817,-0.0824,-0.0734,-0.082,-0.0764,-0.0737,-0.0663,-0.0595,-0.0557,-0.0426,-0.0426,-0.0559,-0.0737,-0.0783,-0.0871,-0.0825,-0.093,-0.0937,-0.1052,-0.1068,-0.0739,-0.0739,-0.0739,-0.074,-0.074,-0.074,-0.0814,-0.0686,-0.068,-0.0507,-0.0483,-0.0408,-0.0384,-0.0326,-0.0292,-0.0166,-0.0102,-0.0078,-0.0158,-0.041,-0.0616,-0.0667,-0.0718,-0.0685,-0.0732,-0.0869,-0.0904,-0.0937,-0.0959,-0.0613,-0.0613,-0.061,-0.061,-0.061]},{"header":{"parameterUnit":"m.s-1","parameterCategory":2,"la1":30.2991,"la2":30.254,"lo1":-89.0895,"lo2":-89.0444,"dy":0.0017,"dx":0.0017,"nx":28,"ny":28,"refTime":"2025-12-28T03:00:00:Z","depth":"0","parameterNumber":3,"parameterNumberName":"V-component_of_CURRENTS"},"data":[0,0,0,0,0,0,0,0,0,0,0,0,0,0,0,0,0,0,0,0,0,0,0,0,0,0,0,0,0,0,0,0,0,0,0,0,0,0,0,0,0,0,0,0,0,0,0,0,0,0,0,0,0,0,0,0,0,0,0.0397,0.0398,0,0.0521,0.0523,0.0524,0.0581,0.0581,0.0581,0.058,0.0686,0.0689,0.0692,0,0,0,0,0,0,0,0,0,0,0,0,0,0.0278,0.0279,0.0396,0.0398,0.04,0.0521,0.0523,0.0524,0.0581,0.0581,0.058,0.058,0.0685,0.0689,0.0692,0,0,0,0,0,0,0,0,0,0,0,0,0,0.0358,0.028,0.0396,0.0443,0.0448,0.0521,0.0523,0.0525,0.0581,0.0581,0.058,0.058,0.0684,0.0688,0.0692,0.0721,0,0,0.0706,0.0708,0,0,0,0,0,0,0,0,0.0353,0.0362,0.0434,0.044,0.0446,0.0536,0.052,0.059,0.0581,0.053,0.058,0.058,0.0635,0.0643,0.0666,0.0726,0.073,0.0706,0.0709,0.0711,0.0712,0,0,0,0,0,0,0,0.0347,0.0357,0.0445,0.0436,0.0443,0.0482,0.0493,0.0534,0.058,0.0534,0.0539,0.0554,0.0638,0.0662,0.0669,0.0732,0.0706,0.071,0.0712,0.0714,0.0835,0.0836,0,0,0,0,0,0,0.033,0.0352,0.0441,0.0449,0.0399,0.0484,0.0496,0.0507,0.058,0.0592,0.0554,0.0556,0.0654,0.0664,0.0673,0.0696,0.071,0.0715,0.0717,0.0834,0.0835,0.0836,0,0,0,0,0,0,0.0327,0.0337,0.0436,0.0404,0.0419,0.0486,0.0498,0.0509,0.0531,0.0596,0.0607,0.0564,0.0655,0.0667,0.0716,0.0701,0.0716,0.072,0.0834,0.0835,0.0836,0.0751,0,0,0,0,0,0,0.0323,0.0335,0.0327,0.0403,0.0421,0.0468,0.0498,0.0512,0.0541,0.0545,0.0608,0.0618,0.0656,0.071,0.0721,0.0707,0.0724,0.0833,0.0834,0.0835,0.0753,0.0749,0.0746,0,0,0,0,0,0.0318,0.0296,0.0326,0.0336,0.0411,0.0468,0.0481,0.0528,0.0541,0.0548,0.06,0.0616,0.0725,0.0714,0.0727,0.0713,0.0832,0.0834,0.0835,0.0755,0.075,0.0746,0,0,0,0,0,0,0.0228,0.0302,0.0336,0.0335,0.0398,0.0478,0.0478,0.0522,0.057,0.0568,0.0629,0.0644,0.0684,0.0717,0.0704,0.0756,0.0779,0.0783,0.0714,0.071,0.0706,0.0674,0.0727,0,0,0,0,0,0.021,0.0213,0.0304,0.0299,0.0328,0.0406,0.0431,0.0472,0.0529,0.0549,0.0602,0.0654,0.0701,0.0718,0.0771,0.0795,0.0817,0.0796,0.0792,0.0788,0.0774,0.0799,0.0794,0.0841,0.084,0.084,0,0,0.0168,0.0211,0.021,0.028,0.0327,0.0362,0.0419,0.0452,0.0475,0.0553,0.0587,0.0648,0.071,0.0744,0.0763,0.0765,0.079,0.079,0.0786,0.0774,0.0799,0.0794,0.079,0.0841,0.0841,0.0841,0,0,0.0097,0.0133,0.0125,0.018,0.0255,0.031,0.0319,0.041,0.0439,0.0495,0.0554,0.0609,0.068,0.0722,0.075,0.0758,0.0778,0.077,0.071,0.0734,0.073,0.0726,0.075,0.0749,0.0755,0.0755,0.0755,0,0.0049,0.0061,0.0129,0.0153,0.0184,0.0283,0.0295,0.0344,0.0438,0.0454,0.0492,0.0607,0.0668,0.0698,0.0708,0.0745,0.0759,0.0716,0.0725,0.0722,0.0719,0.0745,0.0745,0.0751,0.0752,0.0752,0.0753,0,-0.0011,0.0012,0.0009,0.0074,0.0113,0.0137,0.0228,0.0263,0.0318,0.0374,0.0429,0.0527,0.0589,0.062,0.0669,0.0679,0.0695,0.0723,0.0725,0.0709,0.0738,0.0739,0.0746,0.0747,0.0748,0.0749,0,0,-0.0128,-0.005,-0.0045,-0.0007,0.0078,0.0117,0.0133,0.0191,0.0218,0.0294,0.0321,0.0413,0.0469,0.0507,0.0577,0.0602,0.0616,0.0643,0.0646,0.0644,0.0657,0.0633,0.0633,0.0632,0.0632,0.0632,0.0684,0,-0.0184,-0.0165,-0.0117,-0.0084,-0.0049,0.0031,0.0054,0.0113,0.0179,0.0236,0.0304,0.038,0.0422,0.0477,0.0493,0.0609,0.0615,0.0599,0.0692,0.0695,0.0657,0.0632,0.0683,0.0729,0.0685,0.0686,0.0686,0,-0.0242,-0.0208,-0.0202,-0.0117,-0.0099,-0.007,-0.0004,0.0035,0.011,0.016,0.0204,0.0285,0.0345,0.04,0.0496,0.0478,0.0545,0.0617,0.0621,0.0624,0.0672,0.0742,0.0734,0.0791,0.0688,0.0688,0.0688,0,-0.0317,-0.0259,-0.0258,-0.0228,-0.0131,-0.012,-0.0069,0.0007,0.0067,0.0129,0.0197,0.0231,0.0329,0.0366,0.0501,0.05,0.0609,0.0635,0.066,0.066,0.0735,0.0741,0.0774,0.0672,0.0672,0.0672,0.0672,0,-0.0371,-0.0348,-0.0281,-0.026,-0.0214,-0.0152,-0.0091,-0.0042,0.0045,0.014,0.0171,0.0267,0.0331,0.041,0.0471,0.0562,0.0577,0.0636,0.0664,0.0709,0.0711,0.0791,0.0816,0.0674,0.0673,0.0673,0.0673,0,-0.0407,-0.039,-0.0344,-0.027,-0.0234,-0.0189,-0.0056,0.0007,0.0069,0.0196,0.0225,0.0318,0.0407,0.0451,0.0561,0.0574,0.0681,0.0667,0.0707,0.0736,0.0776,0.0795,0.0841,0.0888,0.0684,0.0683,0.0683,0,-0.0404,-0.04,-0.0331,-0.0282,-0.0231,-0.0144,-0.0063,0.002,0.0114,0.0257,0.0334,0.042,0.0522,0.061,0.0613,0.0644,0.0714,0.0721,0.0718,0.0762,0.0807,0.0816,0.0854,0.0802,0.0802,0.0803,0.0803,0,-0.036,-0.0365,-0.0326,-0.024,-0.0157,-0.0056,0.0068,0.0142,0.0263,0.0363,0.0505,0.0576,0.0638,0.0704,0.0701,0.0714,0.0763,0.0729,0.0786,0.0889,0.0896,0.0962,0.0781,0.0808,0.0808,0.0807,0.0807,0.0807,-0.0301,-0.0278,-0.0244,-0.0159,-0.0077,0.0037,0.012,0.0256,0.0391,0.0546,0.062,0.0731,0.0824,0.0813,0.079,0.0804,0.0794,0.0867,0.0886,0.0889,0.0925,0.0728,0.077,0.0769,0.0769,0.0768,0.0768,0,-0.0204,-0.0202,-0.0136,-0.0056,0.0024,0.0059,0.0217,0.0295,0.0449,0.0591,0.0708,0.0886,0.0966,0.0976,0.1006,0.1006,0.0999,0.1023,0.1084,0.1116,0.0967,0.0961,0.1035,0.1035,0.1035,0.1035,0.1034,0.1034,-0.0146,-0.0102,-0.0097,0.003,0.0081,0.0185,0.0261,0.0373,0.0479,0.0669,0.0795,0.0901,0.1087,0.1178,0.1214,0.1188,0.1259,0.1226,0.1244,0.1177,0.1165,0.1154,0.1155,0.1268,0.1268,0.1426,0.1428,0.1429]}],[{"header":{"parameterUnit":"m.s-1","parameterCategory":2,"la1":30.2991,"la2":30.254,"lo1":-89.0895,"lo2":-89.0444,"dy":0.0017,"dx":0.0017,"nx":28,"ny":28,"refTime":"2025-12-28T03:00:00:Z","depth":"2","parameterNumber":2,"parameterNumberName":"U-component_of_CURRENTS"},"data":[0,0,0,0,0,0,0,0,0,0,0,0,0,0,0,0,0,0,0,0,0,0,0,0,0,0,0,0,0,0,0,0,0,0,0,0,0,0,0,0,0,0,0,0,0,0,0,0,0,0,0,0,0,0,0,0,0,0,-0.2066,-0.2066,0,-0.2022,-0.2021,-0.2021,-0.1996,-0.1996,-0.1996,-0.1996,-0.1924,-0.1922,-0.192,0,0,0,0,0,0,0,0,0,0,0,0,0,-0.2115,-0.2115,-0.2066,-0.2065,-0.2065,-0.2022,-0.2021,-0.2021,-0.1996,-0.1996,-0.1996,-0.1996,-0.1924,-0.1922,-0.192,0,0,0,0,0,0,0,0,0,0,0,0,0,-0.2084,-0.2114,-0.2066,-0.2048,-0.2046,-0.2022,-0.2021,-0.2021,-0.1996,-0.1996,-0.1996,-0.1996,-0.1925,-0.1922,-0.192,-0.1901,0,0,-0.1911,-0.1909,0,0,0,0,0,0,0,0,-0.2086,-0.2082,-0.2051,-0.2049,-0.2047,-0.2015,-0.2012,-0.198,-0.1996,-0.2014,-0.1996,-0.1996,-0.1952,-0.1947,-0.1938,-0.1898,-0.1895,-0.191,-0.1909,-0.1907,-0.1907,0,0,0,0,0,0,0,-0.2088,-0.2084,-0.2048,-0.2051,-0.2048,-0.2038,-0.2034,-0.2006,-0.1982,-0.2013,-0.2011,-0.2008,-0.1951,-0.1941,-0.1936,-0.1894,-0.191,-0.1908,-0.1906,-0.1905,-0.1848,-0.1849,0,0,0,0,0,0,-0.2096,-0.2086,-0.2049,-0.2046,-0.2068,-0.2037,-0.2032,-0.2025,-0.1983,-0.1978,-0.2008,-0.2007,-0.1946,-0.194,-0.1933,-0.1936,-0.1907,-0.1905,-0.1903,-0.1848,-0.1849,-0.1849,0,0,0,0,0,0,-0.2097,-0.2093,-0.2051,-0.2066,-0.206,-0.2037,-0.2028,-0.2024,-0.202,-0.198,-0.1973,-0.2009,-0.1946,-0.1937,-0.1916,-0.1932,-0.1903,-0.1901,-0.1848,-0.1848,-0.1849,-0.1923,0,0,0,0,0,0,-0.2099,-0.2094,-0.2096,-0.2067,-0.206,-0.2055,-0.2028,-0.2023,-0.2018,-0.2016,-0.1978,-0.1971,-0.1945,-0.1921,-0.1914,-0.1927,-0.1899,-0.1848,-0.1848,-0.1849,-0.1921,-0.1926,-0.1931,0,0,0,0,0,-0.2101,-0.2111,-0.2097,-0.2093,-0.2062,-0.2056,-0.2053,-0.2035,-0.2018,-0.2028,-0.1994,-0.1973,-0.1919,-0.1919,-0.191,-0.1923,-0.1847,-0.1848,-0.1848,-0.1918,-0.1925,-0.1931,0,0,0,0,0,0,-0.2136,-0.2108,-0.2092,-0.2093,-0.2082,-0.2053,-0.2058,-0.204,-0.2021,-0.2016,-0.1974,-0.1965,-0.1951,-0.1924,-0.1926,-0.1907,-0.188,-0.1879,-0.1936,-0.1942,-0.1947,-0.1944,-0.1896,0,0,0,0,0,-0.2143,-0.2141,-0.2116,-0.2117,-0.2113,-0.2084,-0.2079,-0.2067,-0.2043,-0.2035,-0.2007,-0.1974,-0.1945,-0.1935,-0.1907,-0.1897,-0.1849,-0.1899,-0.1904,-0.1909,-0.1899,-0.1859,-0.186,-0.185,-0.185,-0.185,0,0,-0.2153,-0.2141,-0.2137,-0.2124,-0.211,-0.2111,-0.2082,-0.2081,-0.2079,-0.2029,-0.2021,-0.199,-0.1945,-0.1935,-0.1927,-0.1916,-0.1882,-0.1909,-0.1914,-0.1901,-0.186,-0.1861,-0.1862,-0.1851,-0.1851,-0.1851,0,0,-0.2173,-0.2165,-0.2166,-0.2164,-0.2152,-0.2139,-0.2142,-0.2119,-0.2109,-0.2098,-0.2057,-0.2035,-0.1999,-0.1971,-0.1949,-0.1964,-0.1909,-0.196,-0.1987,-0.195,-0.195,-0.195,-0.1876,-0.1868,-0.1966,-0.1966,-0.1966,0,-0.2188,-0.2176,-0.2169,-0.2175,-0.2168,-0.2154,-0.2152,-0.215,-0.2124,-0.2104,-0.2108,-0.2039,-0.2014,-0.1979,-0.1991,-0.1977,-0.1932,-0.1971,-0.1957,-0.1956,-0.1955,-0.1878,-0.1869,-0.197,-0.1969,-0.1969,-0.1969,0,-0.2196,-0.2197,-0.2203,-0.2198,-0.2201,-0.2201,-0.2194,-0.2193,-0.2179,-0.2158,-0.2128,-0.2098,-0.2045,-0.2052,-0.2028,-0.2005,-0.1967,-0.1968,-0.1945,-0.196,-0.1878,-0.1868,-0.1975,-0.1974,-0.1973,-0.1972,0,0,-0.219,-0.2201,-0.2202,-0.2186,-0.2207,-0.2191,-0.2215,-0.2195,-0.2165,-0.2176,-0.2127,-0.2123,-0.2091,-0.2064,-0.2037,-0.2026,-0.1985,-0.2001,-0.1998,-0.1932,-0.1871,-0.1798,-0.1778,-0.199,-0.1989,-0.1988,-0.1812,0,-0.2187,-0.2183,-0.2202,-0.2193,-0.2179,-0.2191,-0.2195,-0.2186,-0.2172,-0.213,-0.2118,-0.207,-0.21,-0.2063,-0.2062,-0.1989,-0.1962,-0.203,-0.186,-0.1854,-0.1793,-0.1766,-0.1677,-0.151,-0.1801,-0.18,-0.1798,0,-0.2172,-0.2165,-0.2153,-0.2141,-0.2136,-0.2142,-0.2108,-0.211,-0.2085,-0.2074,-0.2058,-0.2027,-0.1996,-0.2021,-0.1941,-0.1981,-0.1929,-0.1896,-0.1888,-0.1785,-0.1762,-0.1543,-0.1478,-0.1779,-0.1781,-0.1782,-0.1784,0,-0.2111,-0.2123,-0.2096,-0.2098,-0.2097,-0.209,-0.2092,-0.2082,-0.2057,-0.2027,-0.1995,-0.1966,-0.1912,-0.1889,-0.1834,-0.1875,-0.1729,-0.1767,-0.1649,-0.1641,-0.1511,-0.1494,-0.1703,-0.1703,-0.1703,-0.1704,-0.1704,0,-0.2072,-0.205,-0.2061,-0.2038,-0.1994,-0.2027,-0.198,-0.1985,-0.197,-0.193,-0.1948,-0.19,-0.188,-0.1802,-0.1785,-0.1663,-0.1681,-0.1628,-0.1591,-0.1532,-0.152,-0.1719,-0.1724,-0.1697,-0.1698,-0.17,-0.1701,0,-0.1989,-0.2011,-0.1966,-0.196,-0.1959,-0.1919,-0.1921,-0.1884,-0.19,-0.1847,-0.1837,-0.1804,-0.1713,-0.1669,-0.1576,-0.1558,-0.1479,-0.1431,-0.1344,-0.1302,-0.1425,-0.1436,-0.1274,-0.127,-0.1266,-0.1264,-0.1261,0,-0.1935,-0.1902,-0.1881,-0.1851,-0.1847,-0.1817,-0.1799,-0.1835,-0.1821,-0.1796,-0.1762,-0.166,-0.1594,-0.1417,-0.1332,-0.1225,-0.1329,-0.1098,-0.118,-0.14,-0.1381,-0.1397,-0.1411,-0.102,-0.1016,-0.1013,-0.101,0,-0.1804,-0.1802,-0.1763,-0.1715,-0.1693,-0.1664,-0.1664,-0.1658,-0.1699,-0.1653,-0.1602,-0.1546,-0.139,-0.1222,-0.1073,-0.1027,-0.1118,-0.1025,-0.1244,-0.1162,-0.1152,-0.1137,-0.1161,-0.0979,-0.0982,-0.0985,-0.0986,-0.0988,-0.1694,-0.164,-0.16,-0.1547,-0.1526,-0.1509,-0.1478,-0.1486,-0.144,-0.1352,-0.1398,-0.1246,-0.1228,-0.0918,-0.0855,-0.0777,-0.0869,-0.0863,-0.0877,-0.0894,-0.0915,-0.0902,-0.0683,-0.0684,-0.0686,-0.0687,-0.0687,0,-0.1533,-0.1492,-0.1434,-0.1386,-0.1331,-0.1362,-0.1367,-0.1296,-0.1217,-0.1127,-0.1031,-0.0872,-0.0753,-0.0731,-0.057,-0.0557,-0.059,-0.0544,-0.0608,-0.0636,-0.0662,-0.0677,-0.0379,-0.0378,-0.0378,-0.0377,0,0,-0.1444,-0.1344,-0.1323,-0.1198,-0.1167,-0.1093,-0.1083,-0.0963,-0.0881,-0.0692,-0.0583,-0.0563,-0.0654,-0.0481,-0.0473,-0.0396,-0.0502,-0.0364,-0.0607,-0.0705,-0.073,-0.0836,-0.0888,0,0,0,0,0]},{"header":{"parameterUnit":"m.s-1","parameterCategory":2,"la1":30.2991,"la2":30.254,"lo1":-89.0895,"lo2":-89.0444,"dy":0.0017,"dx":0.0017,"nx":28,"ny":28,"refTime":"2025-12-28T03:00:00:Z","depth":"2","parameterNumber":3,"parameterNumberName":"V-component_of_CURRENTS"},"data":[0,0,0,0,0,0,0,0,0,0,0,0,0,0,0,0,0,0,0,0,0,0,0,0,0,0,0,0,0,0,0,0,0,0,0,0,0,0,0,0,0,0,0,0,0,0,0,0,0,0,0,0,0,0,0,0,0,0,0.0204,0.0205,0,0.0224,0.0224,0.0224,0.024,0.0241,0.0241,0.0241,0.0302,0.0303,0.0305,0,0,0,0,0,0,0,0,0,0,0,0,0,0.014,0.0142,0.0204,0.0205,0.0205,0.0224,0.0224,0.0224,0.024,0.0241,0.0241,0.0241,0.0301,0.0303,0.0305,0,0,0,0,0,0,0,0,0,0,0,0,0,0.0164,0.0142,0.0204,0.0216,0.0217,0.0224,0.0224,0.0224,0.024,0.0241,0.0241,0.0242,0.0301,0.0303,0.0305,0.031,0,0,0.0311,0.0312,0,0,0,0,0,0,0,0,0.0163,0.0166,0.0214,0.0215,0.0217,0.0231,0.0224,0.0255,0.024,0.0231,0.0241,0.0242,0.0282,0.0286,0.0287,0.0313,0.0315,0.0311,0.0313,0.0313,0.0314,0,0,0,0,0,0,0,0.0161,0.0165,0.0211,0.0214,0.0216,0.0207,0.0211,0.0229,0.0254,0.0231,0.0233,0.0237,0.0283,0.0285,0.0288,0.0316,0.0311,0.0313,0.0314,0.0315,0.0384,0.0384,0,0,0,0,0,0,0.0163,0.0164,0.0211,0.0212,0.0191,0.0208,0.0212,0.0225,0.0253,0.0258,0.0236,0.0237,0.0281,0.0286,0.0291,0.0328,0.0313,0.0315,0.0317,0.0383,0.0384,0.0384,0,0,0,0,0,0,0.0161,0.0167,0.021,0.0188,0.0193,0.0209,0.0223,0.0225,0.0233,0.0256,0.0262,0.0242,0.0281,0.0288,0.0311,0.033,0.0316,0.0318,0.0382,0.0383,0.0384,0.0385,0,0,0,0,0,0,0.0159,0.0166,0.0176,0.0189,0.0195,0.0213,0.0223,0.0226,0.0235,0.0236,0.0263,0.0269,0.0282,0.0308,0.0313,0.0332,0.032,0.0382,0.0383,0.0384,0.0384,0.0385,0.0387,0,0,0,0,0,0.0157,0.0162,0.0176,0.0182,0.0207,0.0213,0.0215,0.0226,0.0235,0.0235,0.0256,0.0268,0.0319,0.0309,0.0316,0.0336,0.0381,0.0382,0.0384,0.0383,0.0385,0.0387,0,0,0,0,0,0,0.0129,0.0164,0.018,0.0194,0.0205,0.0216,0.0216,0.0228,0.0243,0.0248,0.0271,0.0278,0.0303,0.0319,0.0308,0.0359,0.0354,0.0357,0.0352,0.0354,0.0355,0.0353,0.0322,0,0,0,0,0,0.0131,0.0147,0.0174,0.0181,0.019,0.0206,0.021,0.022,0.0235,0.0242,0.0264,0.029,0.0312,0.0331,0.0347,0.0376,0.0395,0.0395,0.0397,0.0398,0.04,0.0449,0.0455,0.0389,0.0389,0.0389,0,0,0.0116,0.0141,0.0147,0.0177,0.0187,0.02,0.0209,0.0216,0.0231,0.0248,0.0273,0.0289,0.0317,0.0346,0.0361,0.0365,0.0424,0.04,0.04,0.0402,0.0451,0.0458,0.0464,0.039,0.0389,0.0389,0,0,0.009,0.0124,0.0127,0.0148,0.0172,0.019,0.0194,0.0215,0.0229,0.0253,0.0271,0.0301,0.0334,0.0362,0.038,0.0402,0.0422,0.0408,0.0425,0.0472,0.0478,0.0484,0.0503,0.051,0.0419,0.0419,0.0419,0,0.0068,0.0087,0.0123,0.0138,0.0155,0.0188,0.0194,0.0216,0.0242,0.0261,0.0262,0.0325,0.0345,0.0394,0.0398,0.0407,0.0424,0.0415,0.0474,0.048,0.0486,0.0504,0.0512,0.0419,0.0419,0.0419,0.0419,0,0.0045,0.0069,0.0071,0.0112,0.0137,0.0143,0.019,0.0214,0.0241,0.0268,0.0313,0.0343,0.0382,0.0398,0.0404,0.0457,0.0453,0.0462,0.0469,0.0493,0.051,0.0518,0.042,0.0419,0.0419,0.0419,0,0,-0.0046,0.0038,0.0035,0.0056,0.0126,0.0133,0.0184,0.0226,0.0255,0.0297,0.0337,0.0381,0.0402,0.0423,0.0444,0.049,0.0537,0.0491,0.0494,0.0507,0.0623,0.0525,0.0525,0.0558,0.056,0.0561,0.0614,0,-0.0087,-0.0067,-0.0002,0.0018,0.003,0.0109,0.0151,0.0207,0.0258,0.0308,0.0366,0.0403,0.0412,0.0429,0.0479,0.0519,0.056,0.052,0.06,0.0602,0.0511,0.0532,0.0539,0.0578,0.0622,0.0624,0.0625,0,-0.015,-0.0119,-0.0107,-0.0023,-0.0009,0.0016,0.0095,0.0139,0.0241,0.0284,0.0355,0.0403,0.0472,0.0475,0.0572,0.0544,0.0581,0.0616,0.0619,0.0535,0.052,0.0565,0.0592,0.0639,0.0638,0.0636,0.0636,0,-0.0267,-0.02,-0.0194,-0.0168,-0.0065,-0.0041,0.0012,0.0116,0.0162,0.0265,0.0313,0.0408,0.0451,0.0524,0.0582,0.0587,0.0679,0.0699,0.065,0.0643,0.0666,0.0657,0.0774,0.0774,0.0774,0.0774,0.0773,0,-0.0349,-0.0345,-0.0253,-0.0252,-0.023,-0.013,-0.0093,-0.0015,0.0095,0.0149,0.0277,0.033,0.0468,0.0539,0.0591,0.0625,0.0687,0.0651,0.0654,0.0662,0.0652,0.072,0.0713,0.0776,0.0775,0.0775,0.0774,0,-0.0474,-0.0419,-0.0406,-0.0315,-0.0288,-0.0279,-0.0161,-0.012,-0.0009,0.0069,0.0103,0.0278,0.0368,0.048,0.0598,0.0618,0.0671,0.0668,0.0643,0.0641,0.0607,0.0599,0.064,0.0637,0.0634,0.0632,0.063,0,-0.0529,-0.0539,-0.0474,-0.0458,-0.0419,-0.0376,-0.0328,-0.0201,-0.0145,0.002,0.0051,0.0185,0.0255,0.0386,0.0486,0.0566,0.0602,0.0587,0.0593,0.0595,0.0596,0.0592,0.0588,0.0637,0.0635,0.0634,0.0633,0,-0.0618,-0.0604,-0.0585,-0.0554,-0.0521,-0.0471,-0.04,-0.038,-0.0229,-0.0185,-0.0104,-0.0037,0.0157,0.0273,0.0396,0.0442,0.0574,0.0557,0.0611,0.0635,0.0588,0.0588,0.0587,0.0622,0.0623,0.0624,0.0624,0.0625,-0.0677,-0.0687,-0.0656,-0.0627,-0.0589,-0.0552,-0.0528,-0.0478,-0.0447,-0.0351,-0.0268,-0.0146,0.0052,0.0226,0.0318,0.0444,0.046,0.0503,0.051,0.0519,0.0474,0.0421,0.0416,0.0416,0.0416,0.0416,0.0416,0,-0.0716,-0.0712,-0.0705,-0.0667,-0.0646,-0.0594,-0.0543,-0.0532,-0.0546,-0.0458,-0.0411,-0.0229,-0.0062,0.0162,0.035,0.0412,0.0461,0.0419,0.0504,0.0514,0.0523,0.0482,0.0425,0.0425,0.0425,0.0425,0,0,-0.073,-0.074,-0.0733,-0.0712,-0.068,-0.0633,-0.0611,-0.0629,-0.0568,-0.0552,-0.044,-0.03,-0.0019,0.0092,0.0229,0.0348,0.0396,0.0342,0.033,0.0424,0.0431,0.0569,0.0515,0,0,0,0,0]}],[{"header":{"parameterUnit":"m.s-1","parameterCategory":2,"la1":30.2991,"la2":30.254,"lo1":-89.0895,"lo2":-89.0444,"dy":0.0017,"dx":0.0017,"nx":28,"ny":28,"refTime":"2025-12-28T03:00:00:Z","depth":"4","parameterNumber":2,"parameterNumberName":"U-component_of_CURRENTS"},"data":[0,0,0,0,0,0,0,0,0,0,0,0,0,0,0,0,0,0,0,0,0,0,0,0,0,0,0,0,0,0,0,0,0,0,0,0,0,0,0,0,0,0,0,0,0,0,0,0,0,0,0,0,0,0,0,0,0,0,-0.0595,-0.0596,0,-0.0648,-0.0648,-0.0649,-0.0679,-0.068,-0.068,-0.0681,-0.0776,-0.0778,-0.078,0,0,0,0,0,0,0,0,0,0,0,0,0,-0.0514,-0.0515,-0.0595,-0.0596,-0.0597,-0.0648,-0.0648,-0.0649,-0.0679,-0.068,-0.068,-0.0681,-0.0775,-0.0778,-0.078,0,0,0,0,0,0,0,0,0,0,0,0,0,-0.0552,-0.0515,-0.0595,-0.0622,-0.0625,-0.0648,-0.0648,-0.0649,-0.0679,-0.068,-0.0681,-0.0681,-0.0774,-0.0777,-0.078,-0.0783,0,0,-0.079,-0.0791,0,0,0,0,0,0,0,0,-0.055,-0.0554,-0.0617,-0.062,-0.0624,-0.0662,-0.0655,-0.0697,-0.0679,-0.0654,-0.0681,-0.0682,-0.0744,-0.075,-0.0751,-0.0787,-0.0791,-0.079,-0.0792,-0.0793,-0.0794,0,0,0,0,0,0,0,-0.0547,-0.0552,-0.0611,-0.0618,-0.0623,-0.063,-0.0635,-0.0662,-0.0691,-0.0656,-0.0659,-0.0672,-0.0746,-0.0747,-0.0753,-0.0793,-0.079,-0.0793,-0.0794,-0.0796,-0.0918,-0.092,0,0,0,0,0,0,-0.055,-0.055,-0.061,-0.0614,-0.0593,-0.0631,-0.0637,-0.0645,-0.069,-0.0698,-0.0672,-0.0674,-0.0742,-0.075,-0.0757,-0.0835,-0.0793,-0.0796,-0.0798,-0.0917,-0.0919,-0.092,0,0,0,0,0,0,-0.0547,-0.0554,-0.0608,-0.0587,-0.0595,-0.0632,-0.064,-0.0646,-0.0666,-0.0702,-0.0711,-0.0689,-0.0743,-0.0753,-0.0796,-0.0836,-0.0797,-0.08,-0.0915,-0.0918,-0.092,-0.0944,0,0,0,0,0,0,-0.0545,-0.0553,-0.0562,-0.0587,-0.0596,-0.0621,-0.064,-0.0646,-0.0674,-0.0678,-0.072,-0.0728,-0.0744,-0.0791,-0.0799,-0.084,-0.0802,-0.0914,-0.0916,-0.0919,-0.0942,-0.0947,-0.0952,0,0,0,0,0,-0.0541,-0.0551,-0.0562,-0.057,-0.0607,-0.0621,-0.0625,-0.0652,-0.0675,-0.0675,-0.0714,-0.0728,-0.0814,-0.0794,-0.0803,-0.0846,-0.0912,-0.0916,-0.0919,-0.094,-0.0946,-0.0952,0,0,0,0,0,0,-0.0531,-0.0557,-0.0569,-0.0589,-0.0604,-0.0628,-0.0642,-0.066,-0.0689,-0.0707,-0.0737,-0.0747,-0.0807,-0.0817,-0.0794,-0.089,-0.087,-0.0875,-0.0883,-0.0889,-0.0894,-0.0879,-0.0805,0,0,0,0,0,-0.0531,-0.0537,-0.0565,-0.0579,-0.0592,-0.062,-0.0634,-0.0652,-0.0682,-0.0696,-0.0722,-0.0768,-0.0823,-0.0847,-0.0883,-0.0925,-0.0904,-0.0962,-0.0967,-0.0971,-0.0966,-0.099,-0.0996,-0.0931,-0.0931,-0.0931,0,0,-0.0532,-0.0547,-0.0552,-0.0576,-0.0595,-0.062,-0.0629,-0.0656,-0.0691,-0.0704,-0.0754,-0.0785,-0.0838,-0.0892,-0.0921,-0.0908,-0.0969,-0.0975,-0.0978,-0.0971,-0.0994,-0.1,-0.1006,-0.0933,-0.0933,-0.0932,0,0,-0.053,-0.0551,-0.0556,-0.0575,-0.0608,-0.0627,-0.0638,-0.0667,-0.0696,-0.0749,-0.0776,-0.0801,-0.0894,-0.0906,-0.094,-0.0987,-0.0997,-0.1038,-0.1051,-0.1075,-0.108,-0.1085,-0.1015,-0.1013,-0.1038,-0.1038,-0.1038,0,-0.0532,-0.0547,-0.0559,-0.058,-0.0605,-0.0634,-0.0659,-0.0695,-0.0733,-0.0753,-0.0777,-0.0876,-0.0893,-0.0958,-0.0982,-0.0994,-0.1004,-0.1023,-0.108,-0.1084,-0.1088,-0.1017,-0.1014,-0.104,-0.104,-0.104,-0.1039,0,-0.0537,-0.056,-0.057,-0.0604,-0.0628,-0.0652,-0.0706,-0.073,-0.078,-0.081,-0.0882,-0.0906,-0.0965,-0.0982,-0.1009,-0.1059,-0.1051,-0.1083,-0.1059,-0.1096,-0.1018,-0.1015,-0.1042,-0.1042,-0.1041,-0.1041,0,0,-0.0509,-0.0561,-0.0566,-0.0583,-0.0646,-0.0657,-0.0727,-0.0774,-0.081,-0.0869,-0.0905,-0.0989,-0.1005,-0.1041,-0.1066,-0.1073,-0.1074,-0.111,-0.1111,-0.1028,-0.1095,-0.1054,-0.1045,-0.1161,-0.1162,-0.1163,-0.1009,0,-0.0509,-0.0543,-0.0576,-0.0613,-0.0637,-0.0688,-0.0744,-0.0795,-0.085,-0.0884,-0.0933,-0.0976,-0.104,-0.1057,-0.11,-0.108,-0.108,-0.1109,-0.1082,-0.1078,-0.103,-0.1047,-0.1166,-0.1007,-0.1006,-0.1005,-0.1005,0,-0.0504,-0.0525,-0.0566,-0.0614,-0.063,-0.066,-0.0727,-0.0783,-0.0853,-0.0903,-0.0975,-0.1004,-0.1027,-0.107,-0.1095,-0.1138,-0.1134,-0.1105,-0.1101,-0.1055,-0.1035,-0.0977,-0.0999,-0.0999,-0.1,-0.1,-0.1001,0,-0.0462,-0.0513,-0.0541,-0.0563,-0.0632,-0.0655,-0.0697,-0.0776,-0.0818,-0.0889,-0.0905,-0.0988,-0.1002,-0.1047,-0.1046,-0.1086,-0.1038,-0.1066,-0.1007,-0.0999,-0.1067,-0.1064,-0.108,-0.108,-0.1081,-0.1081,-0.1082,0,-0.0446,-0.0464,-0.052,-0.0532,-0.0565,-0.0626,-0.0667,-0.0731,-0.0794,-0.0828,-0.0913,-0.0944,-0.1018,-0.1014,-0.1025,-0.1005,-0.1036,-0.0993,-0.0977,-0.1072,-0.1073,-0.106,-0.106,-0.1075,-0.1076,-0.1078,-0.1079,0,-0.0406,-0.0447,-0.047,-0.0527,-0.0548,-0.0572,-0.0637,-0.0663,-0.0741,-0.0778,-0.0788,-0.089,-0.0908,-0.0924,-0.0928,-0.0948,-0.0911,-0.0898,-0.0925,-0.0914,-0.0842,-0.0845,-0.0784,-0.0781,-0.0779,-0.0778,-0.0776,0,-0.0394,-0.0406,-0.0454,-0.0464,-0.0489,-0.053,-0.0564,-0.0646,-0.0669,-0.0749,-0.075,-0.0778,-0.0842,-0.0787,-0.085,-0.0811,-0.0842,-0.0782,-0.0886,-0.0831,-0.0821,-0.0827,-0.0833,-0.0773,-0.0773,-0.0772,-0.0772,0,-0.0367,-0.0386,-0.04,-0.0424,-0.0446,-0.047,-0.0508,-0.051,-0.0601,-0.0655,-0.0693,-0.0707,-0.0727,-0.0764,-0.0739,-0.0736,-0.0796,-0.0762,-0.0767,-0.0865,-0.0818,-0.0811,-0.0819,-0.0765,-0.0766,-0.0767,-0.0767,0,-0.0344,-0.0345,-0.0364,-0.038,-0.0397,-0.0398,-0.0428,-0.0454,-0.0491,-0.0574,-0.059,-0.0653,-0.072,-0.0723,-0.0707,-0.0691,-0.0704,-0.0688,-0.0697,-0.0705,-0.0766,-0.0701,-0.0587,0,0,0,0,0,-0.0323,-0.032,-0.0324,-0.0327,-0.033,-0.0345,-0.0389,-0.042,-0.0487,-0.0494,-0.054,-0.0563,-0.0592,-0.064,-0.061,-0.0668,-0.069,-0.0631,-0.0672,-0.0728,-0.0736,-0.0823,0,0,0,0,0,0,-0.0308,-0.031,-0.0311,-0.0276,-0.026,-0.0268,-0.029,-0.0338,-0.035,-0.0426,-0.0452,-0.0517,-0.0555,-0.0591,-0.0594,-0.0601,-0.0614,-0.0672,-0.067,-0.0724,-0.0731,-0.0737,-0.083,0,0,0,0,0]},{"header":{"parameterUnit":"m.s-1","parameterCategory":2,"la1":30.2991,"la2":30.254,"lo1":-89.0895,"lo2":-89.0444,"dy":0.0017,"dx":0.0017,"nx":28,"ny":28,"refTime":"2025-12-28T03:00:00:Z","depth":"4","parameterNumber":3,"parameterNumberName":"V-component_of_CURRENTS"},"data":[0,0,0,0,0,0,0,0,0,0,0,0,0,0,0,0,0,0,0,0,0,0,0,0,0,0,0,0,0,0,0,0,0,0,0,0,0,0,0,0,0,0,0,0,0,0,0,0,0,0,0,0,0,0,0,0,0,0,-0.0519,-0.0519,0,-0.0545,-0.0545,-0.0545,-0.0549,-0.0549,-0.0549,-0.0549,-0.0539,-0.0539,-0.0539,0,0,0,0,0,0,0,0,0,0,0,0,0,-0.048,-0.048,-0.0519,-0.0519,-0.052,-0.0545,-0.0545,-0.0545,-0.0549,-0.0549,-0.0549,-0.0549,-0.0539,-0.0539,-0.0539,0,0,0,0,0,0,0,0,0,0,0,0,0,-0.0499,-0.0481,-0.0519,-0.0526,-0.0527,-0.0545,-0.0545,-0.0545,-0.0549,-0.0549,-0.0549,-0.0549,-0.054,-0.0539,-0.0539,-0.0538,0,0,-0.0538,-0.0538,0,0,0,0,0,0,0,0,-0.0498,-0.05,-0.0525,-0.0526,-0.0527,-0.0546,-0.0528,-0.0542,-0.055,-0.0539,-0.0549,-0.0549,-0.0539,-0.0539,-0.0542,-0.0538,-0.0537,-0.0538,-0.0538,-0.0537,-0.0537,0,0,0,0,0,0,0,-0.0496,-0.0499,-0.0527,-0.0525,-0.0527,-0.0531,-0.0534,-0.0531,-0.0537,-0.054,-0.0541,-0.0547,-0.054,-0.0542,-0.0542,-0.0537,-0.0538,-0.0538,-0.0537,-0.0537,-0.0559,-0.056,0,0,0,0,0,0,-0.0497,-0.0498,-0.0526,-0.0528,-0.0514,-0.0532,-0.0535,-0.0538,-0.0538,-0.0539,-0.0547,-0.0547,-0.0543,-0.0542,-0.0541,-0.0564,-0.0537,-0.0537,-0.0537,-0.0558,-0.0559,-0.056,0,0,0,0,0,0,-0.0496,-0.0499,-0.0525,-0.0515,-0.0519,-0.0533,-0.0537,-0.0539,-0.0556,-0.0544,-0.0544,-0.0564,-0.0543,-0.0542,-0.0556,-0.0562,-0.0537,-0.0537,-0.0557,-0.0559,-0.056,-0.0593,0,0,0,0,0,0,-0.0495,-0.0498,-0.051,-0.0515,-0.052,-0.0549,-0.0537,-0.0539,-0.056,-0.0561,-0.0559,-0.0557,-0.0543,-0.0557,-0.0556,-0.0561,-0.0536,-0.0556,-0.0558,-0.0559,-0.0591,-0.0595,-0.0599,0,0,0,0,0,-0.0493,-0.0506,-0.051,-0.0514,-0.0532,-0.055,-0.0553,-0.0561,-0.0561,-0.0575,-0.0575,-0.0558,-0.0565,-0.0558,-0.0556,-0.0562,-0.0556,-0.0558,-0.0559,-0.0589,-0.0595,-0.0599,0,0,0,0,0,0,-0.0498,-0.0508,-0.0513,-0.0529,-0.0546,-0.0552,-0.0564,-0.0572,-0.0584,-0.0584,-0.0572,-0.057,-0.0586,-0.0573,-0.0565,-0.0573,-0.0556,-0.0557,-0.0579,-0.0584,-0.0588,-0.0584,-0.0536,0,0,0,0,0,-0.0504,-0.0515,-0.0528,-0.0544,-0.0551,-0.0561,-0.0573,-0.0579,-0.0587,-0.0593,-0.059,-0.0587,-0.059,-0.0588,-0.0588,-0.0593,-0.0566,-0.0595,-0.0599,-0.0602,-0.0599,-0.0582,-0.0584,-0.0566,-0.0566,-0.0566,0,0,-0.051,-0.0519,-0.0525,-0.0546,-0.0554,-0.0566,-0.0568,-0.0588,-0.0599,-0.0589,-0.0603,-0.0606,-0.0598,-0.0605,-0.0609,-0.0595,-0.059,-0.0605,-0.0607,-0.0602,-0.0584,-0.0586,-0.0587,-0.0567,-0.0567,-0.0567,0,0,-0.052,-0.0534,-0.0543,-0.0556,-0.0577,-0.0583,-0.0594,-0.0608,-0.0617,-0.0638,-0.063,-0.0643,-0.0644,-0.0637,-0.0634,-0.0662,-0.0618,-0.0658,-0.0666,-0.065,-0.0651,-0.0652,-0.0602,-0.0598,-0.0652,-0.0652,-0.0652,0,-0.053,-0.0542,-0.0552,-0.0563,-0.0576,-0.0592,-0.0606,-0.0617,-0.0636,-0.0641,-0.0648,-0.0658,-0.0659,-0.0659,-0.067,-0.067,-0.0639,-0.0648,-0.0654,-0.0655,-0.0655,-0.0603,-0.0598,-0.0654,-0.0654,-0.0654,-0.0653,0,-0.054,-0.0556,-0.0563,-0.0579,-0.0595,-0.0614,-0.0627,-0.0643,-0.0659,-0.0666,-0.0685,-0.0691,-0.0695,-0.0698,-0.0694,-0.0692,-0.0662,-0.0667,-0.064,-0.0658,-0.0603,-0.0597,-0.0657,-0.0656,-0.0655,-0.0655,0,0,-0.0544,-0.0567,-0.0572,-0.0584,-0.0608,-0.0623,-0.0638,-0.0658,-0.067,-0.0689,-0.07,-0.0717,-0.0722,-0.0719,-0.0714,-0.07,-0.0678,-0.0682,-0.0681,-0.0627,-0.0609,-0.053,-0.0515,-0.068,-0.068,-0.068,-0.0564,0,-0.0553,-0.0578,-0.0588,-0.0615,-0.0627,-0.0643,-0.0657,-0.0675,-0.0693,-0.0705,-0.071,-0.0723,-0.0728,-0.0734,-0.0724,-0.0692,-0.0666,-0.0706,-0.0604,-0.06,-0.0524,-0.0508,-0.0679,-0.0559,-0.0558,-0.0557,-0.0556,0,-0.0559,-0.0576,-0.0605,-0.0633,-0.064,-0.0661,-0.0688,-0.0704,-0.0715,-0.0728,-0.0737,-0.0736,-0.0723,-0.0733,-0.0673,-0.0694,-0.0657,-0.0627,-0.0622,-0.0532,-0.0511,-0.0542,-0.0545,-0.0546,-0.0547,-0.0548,-0.0548,0,-0.0558,-0.0589,-0.0617,-0.0627,-0.0657,-0.0676,-0.0697,-0.0714,-0.0728,-0.0742,-0.0744,-0.0734,-0.072,-0.0687,-0.0624,-0.065,-0.0538,-0.0567,-0.0452,-0.0445,-0.0537,-0.0538,-0.0524,-0.0525,-0.0525,-0.0525,-0.0525,0,-0.0563,-0.0586,-0.0623,-0.0637,-0.0669,-0.0687,-0.0717,-0.0737,-0.0753,-0.0757,-0.0759,-0.0741,-0.0709,-0.0642,-0.0604,-0.0485,-0.0518,-0.0438,-0.0411,-0.0552,-0.0556,-0.0531,-0.0533,-0.0521,-0.0522,-0.0523,-0.0523,0,-0.0557,-0.0584,-0.0613,-0.0652,-0.067,-0.0693,-0.0734,-0.0746,-0.0763,-0.0766,-0.0767,-0.0729,-0.0626,-0.0559,-0.0473,-0.0436,-0.0352,-0.0304,-0.0417,-0.0401,-0.0276,-0.0281,-0.0172,-0.0169,-0.0166,-0.0163,-0.0161,0,-0.0557,-0.0572,-0.0619,-0.0639,-0.0664,-0.07,-0.0719,-0.0754,-0.0761,-0.0748,-0.0737,-0.0643,-0.06,-0.0397,-0.0344,-0.0218,-0.0218,-0.0177,-0.0271,-0.0255,-0.024,-0.0251,-0.0261,-0.0156,-0.0155,-0.0154,-0.0153,0,-0.0549,-0.057,-0.0592,-0.0629,-0.0663,-0.069,-0.0722,-0.0723,-0.0744,-0.0756,-0.0685,-0.06,-0.0458,-0.0347,-0.0222,-0.0157,-0.0213,-0.0144,-0.0152,-0.024,-0.0233,-0.0224,-0.0237,-0.0142,-0.0144,-0.0145,-0.0145,0,-0.054,-0.0553,-0.0582,-0.0614,-0.0653,-0.0672,-0.069,-0.0683,-0.069,-0.068,-0.0644,-0.0532,-0.0476,-0.0309,-0.021,-0.0109,-0.0116,-0.0137,-0.0146,-0.0158,-0.0198,-0.019,-0.0045,0,0,0,0,0,-0.052,-0.0535,-0.0564,-0.0598,-0.0633,-0.0659,-0.0685,-0.0695,-0.0707,-0.065,-0.0652,-0.0525,-0.0358,-0.0287,-0.0167,-0.0162,-0.0102,-0.0022,-0.0132,-0.0081,-0.0094,-0.0138,0,0,0,0,0,0,-0.051,-0.0534,-0.0552,-0.0578,-0.0598,-0.0635,-0.0653,-0.0662,-0.0625,-0.0624,-0.0521,-0.0507,-0.0328,-0.0415,-0.0166,-0.0137,-0.0196,0.0049,0.0051,-0.0074,-0.0085,-0.0096,-0.0145,0,0,0,0,0]}]]